TimeMDT,TemperatureF,Dew PointF,Humidity,Sea Level PressureIn,VisibilityMPH,Wind Direction,Wind SpeedMPH,Gust SpeedMPH,PrecipitationIn,Events,Conditions,WindDirDegrees,DateUTC
12:55 AM,63.7,32.2,31,29.72,10.0,SSE,11.5,-,N/A,,Clear,150,2012-10-24 06:55:00
1:55 AM,61.3,32.0,33,29.73,10.0,South,4.6,-,N/A,,Clear,170,2012-10-24 07:55:00
2:55 AM,60.6,32.2,34,29.71,10.0,SSE,6.9,-,N/A,,Scattered Clouds,150,2012-10-24 08:55:00
3:55 AM,59.7,31.1,34,29.70,10.0,Calm,Calm,-,N/A,,Clear,0,2012-10-24 09:55:00
4:55 AM,57.2,31.6,38,29.70,10.0,Calm,Calm,-,N/A,,Partly Cloudy,0,2012-10-24 10:55:00
5:55 AM,57.9,31.5,37,29.71,10.0,SSE,4.6,-,N/A,,Partly Cloudy,150,2012-10-24 11:55:00
6:55 AM,56.8,31.8,39,29.73,10.0,South,5.8,-,N/A,,Clear,170,2012-10-24 12:55:00
7:55 AM,57.0,32.5,40,29.75,10.0,SSE,4.6,-,N/A,,Clear,150,2012-10-24 13:55:00
8:55 AM,61.2,32.4,34,29.76,10.0,SE,10.4,-,N/A,,Clear,130,2012-10-24 14:55:00
9:55 AM,70.2,33.1,25,29.76,6.0,SSE,9.2,-,N/A,,Haze,150,2012-10-24 15:55:00
11:55 AM,78.6,33.1,19,29.73,10.0,Variable,6.9,-,N/A,,Clear,0,2012-10-24 17:55:00
12:55 PM,81.5,28.4,14,29.68,10.0,South,15.0,-,N/A,,Clear,190,2012-10-24 18:55:00
1:55 PM,83.3,24.1,11,29.65,10.0,WSW,15.0,19.6,N/A,,Clear,240,2012-10-24 19:55:00
2:55 PM,83.3,28.0,13,29.63,10.0,SW,18.4,23.0,N/A,,Clear,230,2012-10-24 20:55:00
3:55 PM,83.3,25.3,12,29.62,10.0,WSW,16.1,20.7,N/A,,Clear,240,2012-10-24 21:55:00
4:55 PM,82.8,23.7,11,29.62,10.0,SW,19.6,-,N/A,,Clear,220,2012-10-24 22:55:00
5:55 PM,80.2,22.5,12,29.62,10.0,SSW,15.0,23.0,N/A,,Clear,210,2012-10-24 23:55:00
6:55 PM,75.4,23.4,14,29.64,10.0,SW,13.8,24.2,N/A,,Clear,230,2012-10-25 00:55:00
7:55 PM,75.2,25.0,15,29.67,10.0,SE,15.0,24.2,N/A,,Clear,140,2012-10-25 01:55:00
8:55 PM,73.9,25.5,17,29.68,10.0,South,11.5,-,N/A,,Clear,180,2012-10-25 02:55:00
9:55 PM,70.3,25.7,19,29.68,10.0,SSE,8.1,-,N/A,,Clear,160,2012-10-25 03:55:00
10:55 PM,68.7,25.7,20,29.68,10.0,Calm,Calm,-,N/A,,Clear,0,2012-10-25 04:55:00
11:55 PM,66.0,26.4,22,29.69,10.0,SSW,16.1,-,N/A,,Clear,210,2012-10-25 05:55:00